timestamp,wind_dir_avg,wind_spd_max_dir,wind_spd_avg,wind_spd_gust,battery_voltage,lat,long
2017-12-12 00:00:00+00:00,238.0,233.0,4.13,4.95,,47.59359,-54.27349
2017-12-12 00:10:00+00:00,236.0,235.0,3.43,4.01,,47.59359,-54.27349
2017-12-12 00:20:00+00:00,240.0,236.0,3.69,4.01,,47.59359,-54.27349
2017-12-12 00:30:00+00:00,230.0,237.0,3.28,3.66,,47.59359,-54.27349
2017-12-12 00:40:00+00:00,225.0,225.0,3.11,3.48,,47.59359,-54.27349
2017-12-12 00:50:00+00:00,233.0,235.0,2.95,3.39,,47.59359,-54.27349
2017-12-12 01:00:00+00:00,214.0,211.0,2.52,2.95,,47.59359,-54.27349
2017-12-12 01:10:00+00:00,243.0,238.0,1.84,2.31,,47.59359,-54.27349
2017-12-12 01:20:00+00:00,236.0,233.0,2.04,2.26,,47.59359,-54.27349
2017-12-12 01:30:00+00:00,218.0,219.0,2.99,3.38,,47.59359,-54.27349
2017-12-12 01:40:00+00:00,217.0,222.0,2.57,2.94,,47.59359,-54.27349
2017-12-12 01:50:00+00:00,212.0,215.0,3.37,3.84,,47.59359,-54.27349
2017-12-12 02:00:00+00:00,184.0,184.0,2.73,3.07,,47.59359,-54.27349
2017-12-12 02:10:00+00:00,188.0,199.0,4.05,6.03,,47.59359,-54.27349
2017-12-12 02:20:00+00:00,214.0,212.0,6.35,7.13,,47.59359,-54.27349
2017-12-12 02:30:00+00:00,204.0,208.0,4.42,5.0,,47.59359,-54.27349
2017-12-12 02:40:00+00:00,192.0,196.0,4.55,5.27,,47.59359,-54.27349
2017-12-12 02:50:00+00:00,196.0,195.0,5.3,6.21,,47.59359,-54.27349
2017-12-12 03:00:00+00:00,192.0,192.0,5.27,6.04,,47.59359,-54.27349
2017-12-12 03:10:00+00:00,196.0,196.0,5.37,5.99,,47.59359,-54.27349
2017-12-12 03:20:00+00:00,208.0,218.0,5.18,6.58,,47.59359,-54.27349
2017-12-12 03:30:00+00:00,207.0,213.0,5.11,6.11,,47.59359,-54.27349
2017-12-12 03:40:00+00:00,214.0,216.0,5.61,6.32,,47.59359,-54.27349
2017-12-12 03:50:00+00:00,205.0,211.0,5.75,6.5,,47.59359,-54.27349
2017-12-12 04:00:00+00:00,197.0,205.0,6.95,8.0,,47.59359,-54.27349
2017-12-12 04:10:00+00:00,192.0,194.0,8.68,10.58,,47.59359,-54.27349
2017-12-12 04:20:00+00:00,202.0,195.0,9.86,12.06,,47.59359,-54.27349
2017-12-12 04:30:00+00:00,207.0,205.0,8.4,10.9,,47.59359,-54.27349
2017-12-12 04:40:00+00:00,216.0,210.0,11.93,14.28,,47.59359,-54.27349
2017-12-12 04:50:00+00:00,216.0,219.0,12.39,14.5,,47.59359,-54.27349
2017-12-12 05:00:00+00:00,218.0,218.0,12.7,14.58,,47.59359,-54.27349
2017-12-12 05:10:00+00:00,220.0,219.0,12.72,14.59,,47.59359,-54.27349
2017-12-12 05:20:00+00:00,215.0,215.0,12.28,13.91,,47.59359,-54.27349
2017-12-12 05:30:00+00:00,218.0,221.0,11.15,12.63,,47.59359,-54.27349
2017-12-12 05:40:00+00:00,217.0,216.0,10.35,12.58,,47.59359,-54.27349
2017-12-12 05:50:00+00:00,215.0,213.0,11.38,13.34,,47.59359,-54.27349
2017-12-12 06:00:00+00:00,215.0,213.0,11.62,13.55,,47.59359,-54.27349
2017-12-12 06:10:00+00:00,219.0,216.0,10.88,12.0,,47.59359,-54.27349
2017-12-12 06:20:00+00:00,219.0,219.0,11.86,13.9,,47.59359,-54.27349
2017-12-12 06:30:00+00:00,220.0,211.0,11.5,13.93,,47.59359,-54.27349
2017-12-12 06:40:00+00:00,223.0,221.0,12.78,15.14,,47.59359,-54.27349
2017-12-12 06:50:00+00:00,230.0,226.0,11.77,14.92,,47.59359,-54.27349
2017-12-12 07:00:00+00:00,234.0,237.0,12.46,13.99,,47.59359,-54.27349
2017-12-12 07:10:00+00:00,242.0,250.0,11.05,13.21,,47.59359,-54.27349
2017-12-12 07:20:00+00:00,242.0,243.0,11.2,14.13,,47.59359,-54.27349
2017-12-12 07:30:00+00:00,243.0,238.0,10.63,12.53,,47.59359,-54.27349
2017-12-12 07:40:00+00:00,245.0,241.0,11.09,12.46,,47.59359,-54.27349
2017-12-12 07:50:00+00:00,245.0,257.0,9.2,11.32,,47.59359,-54.27349
2017-12-12 08:00:00+00:00,245.0,238.0,9.58,11.4,,47.59359,-54.27349
2017-12-12 08:10:00+00:00,252.0,253.0,10.03,11.59,,47.59359,-54.27349
2017-12-12 08:20:00+00:00,253.0,258.0,8.76,10.64,,47.59359,-54.27349
2017-12-12 08:30:00+00:00,251.0,251.0,9.16,10.2,,47.59359,-54.27349
2017-12-12 08:40:00+00:00,265.0,267.0,9.92,11.01,,47.59359,-54.27349
2017-12-12 08:50:00+00:00,267.0,270.0,8.71,10.19,,47.59359,-54.27349
2017-12-12 09:00:00+00:00,264.0,262.0,8.47,9.64,,47.59359,-54.27349
2017-12-12 09:10:00+00:00,268.0,265.0,7.68,8.49,,47.59359,-54.27349
2017-12-12 09:20:00+00:00,276.0,278.0,6.97,8.01,,47.59359,-54.27349
2017-12-12 09:30:00+00:00,276.0,273.0,7.18,7.95,,47.59359,-54.27349
2017-12-12 09:40:00+00:00,272.0,268.0,6.9,7.57,,47.59359,-54.27349
2017-12-12 09:50:00+00:00,264.0,270.0,6.37,7.11,,47.59359,-54.27349
2017-12-12 10:00:00+00:00,271.0,271.0,6.1,7.36,,47.59359,-54.27349
2017-12-12 10:10:00+00:00,279.0,277.0,5.5,6.37,,47.59359,-54.27349
2017-12-12 10:20:00+00:00,292.0,294.0,6.41,7.63,,47.59359,-54.27349
2017-12-12 10:30:00+00:00,306.0,306.0,6.43,7.54,,47.59359,-54.27349
2017-12-12 10:40:00+00:00,347.0,346.0,6.68,7.23,,47.59359,-54.27349
2017-12-12 10:50:00+00:00,336.0,340.0,6.18,6.73,,47.59359,-54.27349
2017-12-12 11:00:00+00:00,337.0,344.0,4.63,5.38,,47.59359,-54.27349
2017-12-12 11:10:00+00:00,359.0,0.0,3.84,4.42,,47.59359,-54.27349
2017-12-12 11:20:00+00:00,1.0,359.0,3.82,4.46,,47.59359,-54.27349
2017-12-12 11:30:00+00:00,4.0,6.0,3.8,4.44,,47.59359,-54.27349
2017-12-12 11:40:00+00:00,10.0,11.0,3.56,3.93,,47.59359,-54.27349
2017-12-12 11:50:00+00:00,25.0,36.0,3.73,4.38,,47.59359,-54.27349
2017-12-12 12:00:00+00:00,22.0,18.0,4.18,4.78,,47.59359,-54.27349
2017-12-12 12:10:00+00:00,28.0,24.0,5.14,7.01,,47.59359,-54.27349
2017-12-12 12:20:00+00:00,32.0,36.0,6.39,6.93,,47.59359,-54.27349
2017-12-12 12:30:00+00:00,32.0,33.0,6.7,7.47,,47.59359,-54.27349
2017-12-12 12:40:00+00:00,29.0,30.0,7.54,8.54,,47.59359,-54.27349
2017-12-12 12:50:00+00:00,37.0,30.0,7.39,8.87,,47.59359,-54.27349
2017-12-12 13:00:00+00:00,43.0,48.0,6.81,7.67,,47.59359,-54.27349
2017-12-12 13:10:00+00:00,50.0,51.0,7.49,8.23,,47.59359,-54.27349
2017-12-12 13:20:00+00:00,45.0,48.0,7.71,8.27,,47.59359,-54.27349
2017-12-12 13:30:00+00:00,45.0,42.0,7.87,8.71,,47.59359,-54.27349
2017-12-12 13:40:00+00:00,48.0,42.0,8.53,9.55,,47.59359,-54.27349
2017-12-12 13:50:00+00:00,58.0,63.0,8.26,9.32,,47.59359,-54.27349
2017-12-12 14:00:00+00:00,56.0,59.0,9.39,10.14,,47.59359,-54.27349
2017-12-12 14:10:00+00:00,56.0,56.0,8.62,9.55,,47.59359,-54.27349
2017-12-12 14:20:00+00:00,56.0,62.0,8.36,9.49,,47.59359,-54.27349
2017-12-12 14:30:00+00:00,57.0,58.0,9.3,10.55,,47.59359,-54.27349
2017-12-12 14:40:00+00:00,56.0,56.0,8.3,9.67,,47.59359,-54.27349
2017-12-12 14:50:00+00:00,58.0,58.0,8.76,9.64,,47.59359,-54.27349
2017-12-12 15:00:00+00:00,56.0,53.0,8.45,9.81,,47.59359,-54.27349
2017-12-12 15:10:00+00:00,53.0,64.0,8.81,9.82,,47.59359,-54.27349
2017-12-12 15:20:00+00:00,53.0,54.0,8.5,9.5,,47.59359,-54.27349
2017-12-12 15:30:00+00:00,67.0,68.0,8.57,9.32,,47.59359,-54.27349
2017-12-12 15:40:00+00:00,62.0,61.0,8.43,10.34,,47.59359,-54.27349
2017-12-12 15:50:00+00:00,72.0,72.0,8.68,9.53,,47.59359,-54.27349
2017-12-12 16:00:00+00:00,60.0,64.0,8.89,9.57,,47.59359,-54.27349
2017-12-12 16:10:00+00:00,56.0,58.0,7.44,8.98,,47.59359,-54.27349
2017-12-12 16:20:00+00:00,62.0,67.0,8.78,9.77,,47.59359,-54.27349
2017-12-12 16:30:00+00:00,58.0,58.0,8.91,10.14,,47.59359,-54.27349
2017-12-12 16:40:00+00:00,64.0,65.0,8.79,10.45,,47.59359,-54.27349
2017-12-12 16:50:00+00:00,57.0,54.0,8.8,10.12,,47.59359,-54.27349
2017-12-12 17:00:00+00:00,60.0,60.0,9.04,10.24,,47.59359,-54.27349
2017-12-12 17:10:00+00:00,69.0,70.0,8.87,10.58,,47.59359,-54.27349
2017-12-12 17:20:00+00:00,68.0,72.0,9.41,10.23,,47.59359,-54.27349
2017-12-12 17:30:00+00:00,81.0,84.0,8.13,9.54,,47.59359,-54.27349
2017-12-12 17:40:00+00:00,79.0,82.0,8.07,9.48,,47.59359,-54.27349
2017-12-12 17:50:00+00:00,85.0,78.0,7.58,8.9,,47.59359,-54.27349
2017-12-12 18:00:00+00:00,82.0,83.0,8.39,9.31,,47.59359,-54.27349
2017-12-12 18:10:00+00:00,77.0,76.0,8.02,9.16,,47.59359,-54.27349
2017-12-12 18:20:00+00:00,78.0,74.0,7.84,9.21,,47.59359,-54.27349
2017-12-12 18:30:00+00:00,72.0,70.0,8.46,9.56,,47.59359,-54.27349
2017-12-12 18:40:00+00:00,80.0,76.0,10.02,10.86,,47.59359,-54.27349
2017-12-12 18:50:00+00:00,79.0,80.0,9.54,10.32,,47.59359,-54.27349
2017-12-12 19:00:00+00:00,75.0,71.0,10.92,12.5,,47.59359,-54.27349
2017-12-12 19:10:00+00:00,83.0,84.0,9.28,11.02,,47.59359,-54.27349
2017-12-12 19:20:00+00:00,79.0,74.0,9.83,11.62,,47.59359,-54.27349
2017-12-12 19:30:00+00:00,82.0,79.0,9.97,13.38,,47.59359,-54.27349
2017-12-12 19:40:00+00:00,78.0,78.0,9.73,11.56,,47.59359,-54.27349
2017-12-12 19:50:00+00:00,81.0,81.0,10.55,11.84,,47.59359,-54.27349
2017-12-12 20:00:00+00:00,76.0,74.0,10.19,12.33,,47.59359,-54.27349
2017-12-12 20:10:00+00:00,72.0,72.0,9.81,10.65,,47.59359,-54.27349
2017-12-12 20:20:00+00:00,74.0,74.0,10.15,11.28,,47.59359,-54.27349
2017-12-12 20:30:00+00:00,78.0,77.0,10.2,11.41,,47.59359,-54.27349
2017-12-12 20:40:00+00:00,82.0,80.0,9.14,10.45,,47.59359,-54.27349
2017-12-12 20:50:00+00:00,76.0,74.0,10.01,11.52,,47.59359,-54.27349
2017-12-12 21:00:00+00:00,84.0,82.0,10.22,11.83,,47.59359,-54.27349
2017-12-12 21:10:00+00:00,85.0,82.0,8.72,10.72,,47.59359,-54.27349
2017-12-12 21:20:00+00:00,83.0,82.0,9.35,10.5,,47.59359,-54.27349
2017-12-12 21:30:00+00:00,81.0,81.0,10.18,11.03,,47.59359,-54.27349
2017-12-12 21:40:00+00:00,82.0,81.0,9.72,11.48,,47.59359,-54.27349
2017-12-12 21:50:00+00:00,86.0,78.0,7.57,9.91,,47.59359,-54.27349
2017-12-12 22:00:00+00:00,77.0,86.0,8.51,9.95,,47.59359,-54.27349
2017-12-12 22:10:00+00:00,83.0,85.0,8.66,10.08,,47.59359,-54.27349
2017-12-12 22:20:00+00:00,84.0,74.0,8.08,10.81,,47.59359,-54.27349
2017-12-12 22:30:00+00:00,84.0,75.0,8.01,10.91,,47.59359,-54.27349
2017-12-12 22:40:00+00:00,87.0,88.0,8.26,10.3,,47.59359,-54.27349
2017-12-12 22:50:00+00:00,80.0,85.0,8.27,9.84,,47.59359,-54.27349
2017-12-12 23:00:00+00:00,83.0,82.0,7.41,9.55,,47.59359,-54.27349
2017-12-12 23:10:00+00:00,86.0,83.0,8.32,10.33,,47.59359,-54.27349
2017-12-12 23:20:00+00:00,86.0,86.0,7.63,9.54,,47.59359,-54.27349
2017-12-12 23:30:00+00:00,82.0,78.0,8.15,9.86,,47.59359,-54.27349
2017-12-12 23:40:00+00:00,84.0,82.0,10.26,12.3,,47.59359,-54.27349
2017-12-12 23:50:00+00:00,85.0,81.0,7.75,9.84,,47.59359,-54.27349
